Weather History for Altus AFB, OK

Change the Weather History Date:

Friday, April 6, 2012

  Actual Average Record
Temperature  
Mean Temperature 60 °F -  
Max Temperature 73 °F 68 °F 94 °F (2011)
Min Temperature 47 °F 44 °F 32 °F (2009)
Degree Days  
Heating Degree Days 6    
Growing Degree Days 10 (Base 50)    
Moisture  
Dew Point 54 °F    
Average Humidity 87    
Maximum Humidity 100    
Minimum Humidity 59    
Precipitation  
Precipitation 0.00 in - - ()
Sea Level Pressure  
Sea Level Pressure 29.99 in    
Wind  
Wind Speed 8 mph (East)    
Max Wind Speed 18 mph    
Max Gust Speed 24 mph    
Visibility 9 miles    
Events      
Averages and records for this station are not official NWS values.
T = Trace of Precipitation, MM = Missing Value Source: NWS Daily Summary

Daily Weather History Graph

Daily Weather History Graph

Search for Another Location

Airport:

Trip Planner

Search our weather history database for the weather conditions in past years. The results will help you decide how hot, cold, wet, or windy it might be!

Date:

Astronomy

Apr. 06, 2012 Rise Set
Actual Time 7:16 AM CDT 8:02 PM CDT
Civil Twilight 6:51 AM CDT 8:28 PM CDT
Nautical Twilight 6:20 AM CDT 8:58 PM CDT
Astronomical Twilight 5:49 AM CDT 9:29 PM CDT
Moon 8:21 PM CDT (4/6) 6:51 AM CDT (4/6)
Length of Visible Light 13h 37m
Length of Day
12h 45m
Full, 100% of the Moon is Illuminated
Apr 6
Full
Apr 6
Full
Apr 13
Last Quarter
Apr 21
New
Apr 29
First Quarter

Hourly Weather History & Observations

Time (CDT) Temp. Dew Point Humidity Pressure Visibility Wind Dir Wind Speed Gust Speed Precip Events Conditions
12:55 AM 52.7 °F 51.1 °F 94% 29.96 in 10.0 mi East 5.8 mph - N/A   Clear
1:55 AM 50.7 °F 50.4 °F 99% 29.97 in 10.0 mi Calm Calm - N/A   Clear
2:55 AM 48.7 °F 48.7 °F 100% 29.96 in 10.0 mi NNE 4.6 mph - N/A   Clear
3:55 AM 48.2 °F 48.2 °F 100% 29.97 in 10.0 mi NNE 4.6 mph - N/A   Clear
4:12 AM 48.2 °F 48.2 °F 100% 29.98 in 9.0 mi NE 6.9 mph - N/A   Clear
4:18 AM 48.2 °F 48.2 °F 100% 29.97 in 8.0 mi NNE 8.1 mph - N/A   Clear
4:28 AM 48.2 °F 48.2 °F 100% 29.98 in 8.0 mi NNE 3.5 mph - N/A   Clear
4:42 AM 48.2 °F 48.2 °F 100% 29.98 in 8.0 mi NE 4.6 mph - N/A   Partly Cloudy
4:55 AM 48.7 °F 48.7 °F 100% 29.99 in 8.0 mi NE 3.5 mph - N/A   Scattered Clouds
5:22 AM 48.2 °F 48.2 °F 100% 29.99 in 7.0 mi NNE 3.5 mph - N/A   Partly Cloudy
5:33 AM 48.2 °F 48.2 °F 100% 29.99 in 7.0 mi NNE 6.9 mph - N/A   Clear
5:37 AM 48.2 °F 48.2 °F 100% 29.99 in 7.0 mi NNE 8.1 mph - N/A   Clear
5:48 AM 48.2 °F 48.2 °F 100% 29.99 in 7.0 mi NE 8.1 mph - N/A   Clear
5:55 AM 48.4 °F 48.4 °F 100% 29.99 in 7.0 mi NE 6.9 mph - N/A   Clear
6:55 AM 48.0 °F 48.0 °F 100% 30.00 in 7.0 mi NNE 3.5 mph - N/A   Clear
7:55 AM 47.7 °F 47.7 °F 100% 30.03 in 6.0 mi NE 5.8 mph - N/A   Clear
8:48 AM 53.6 °F 53.6 °F 100% 30.05 in 6.0 mi ENE 5.8 mph - N/A   Partly Cloudy
8:55 AM 54.3 °F 54.3 °F 100% 30.05 in 6.0 mi East 6.9 mph - N/A   Partly Cloudy
9:01 AM 55.4 °F 55.4 °F 100% 30.05 in 6.0 mi East 9.2 mph - N/A   Mostly Cloudy
9:32 AM 57.2 °F 57.2 °F 100% 30.04 in 8.0 mi ESE 11.5 mph - N/A   Mostly Cloudy
9:45 AM 57.2 °F 57.2 °F 100% 30.05 in 10.0 mi East 10.4 mph - N/A   Mostly Cloudy
9:55 AM 57.9 °F 57.0 °F 97% 30.05 in 10.0 mi SE 9.2 mph - N/A   Overcast
10:26 AM 59.0 °F 57.2 °F 94% 30.05 in 10.0 mi ESE 10.4 mph - N/A   Overcast
10:55 AM 61.2 °F 56.7 °F 85% 30.04 in 10.0 mi ESE 11.5 mph - N/A   Overcast
11:09 AM 62.6 °F 57.2 °F 82% 30.04 in 10.0 mi ESE 10.4 mph - N/A   Scattered Clouds
11:17 AM 62.6 °F 57.2 °F 82% 30.04 in 10.0 mi ESE 11.5 mph - N/A   Mostly Cloudy
11:20 AM 62.6 °F 57.2 °F 82% 30.04 in 10.0 mi ESE 11.5 mph - N/A   Mostly Cloudy
11:27 AM 64.4 °F 57.2 °F 77% 30.04 in 10.0 mi SE 12.7 mph - N/A   Scattered Clouds
11:55 AM 65.1 °F 56.8 °F 75% 30.04 in 10.0 mi ESE 11.5 mph 19.6 mph N/A   Scattered Clouds
12:55 PM 67.3 °F 57.4 °F 70% 30.01 in 10.0 mi ESE 9.2 mph - N/A   Mostly Cloudy
1:02 PM 68.0 °F 57.2 °F 68% 30.01 in 10.0 mi SE 9.2 mph 17.3 mph N/A   Mostly Cloudy
1:31 PM 69.8 °F 57.2 °F 64% 29.99 in 10.0 mi ESE 13.8 mph 18.4 mph N/A   Mostly Cloudy
1:55 PM 69.4 °F 57.7 °F 66% 29.98 in 10.0 mi ESE 11.5 mph - N/A   Mostly Cloudy
2:03 PM 69.8 °F 57.2 °F 64% 29.98 in 10.0 mi SE 15.0 mph 23.0 mph N/A   Scattered Clouds
2:55 PM 71.2 °F 58.1 °F 63% 29.95 in 10.0 mi ESE 18.4 mph 24.2 mph N/A   Clear
3:55 PM 72.3 °F 57.4 °F 59% 29.94 in 10.0 mi SE 15.0 mph 20.7 mph N/A   Clear
4:55 PM 72.9 °F 57.9 °F 59% 29.92 in 10.0 mi SE 15.0 mph 21.9 mph N/A   Partly Cloudy
5:55 PM 72.7 °F 59.0 °F 62% 29.91 in 10.0 mi SE 16.1 mph - N/A   Clear
6:55 PM 71.4 °F 59.2 °F 65% 29.92 in 10.0 mi ESE 16.1 mph - N/A   Clear
7:55 PM 67.5 °F 60.1 °F 77% 29.92 in 10.0 mi East 11.5 mph - N/A   Clear
8:55 PM 64.6 °F 59.0 °F 82% 29.91 in 10.0 mi East 11.5 mph - N/A   Clear
9:55 PM 65.1 °F 58.6 °F 79% 29.91 in 10.0 mi ESE 16.1 mph - N/A   Clear
10:55 PM 64.4 °F 58.1 °F 80% 29.94 in 10.0 mi ESE 13.8 mph - N/A   Clear
11:55 PM 63.5 °F 57.7 °F 81% 29.94 in 10.0 mi ESE 13.8 mph - N/A   Clear